EW0890 Weather Reports


time (UTC)temp
C
wind
direction
speed
KPH
gust
KPH
rain 1hr
cm
rain 24hr
cm
rain mn
cm
humidity
%
barometer
mb
20260831170105 29 290 1.6 6.4 0.00 0.00 0.00 71 1016.3
20260831170100 29 285 3.2 6.4 0.00 0.00 0.00 71 1016.3
20260831165502 29 313 1.6 8.0 0.00 0.00 0.00 68 1016.4
20260831165007 29 260 3.2 8.0 0.00 0.00 0.00 68 1016.4
20260831164626 29 284 3.2 8.0 0.00 0.00 0.00 68 1016.5
20260831164517 29 263 3.2 6.4 0.00 0.00 0.00 68 1016.4
20260831164009 29 238 3.2 8.0 0.00 0.00 0.00 68 1016.4
20260831163509 29 278 4.8 8.0 0.00 0.00 0.00 67 1016.4
20260831163106 29 310 4.8 8.0 0.00 0.00 0.00 66 1016.4
20260831163028 29 241 4.8 8.0 0.00 0.00 0.00 67 1016.4
20260831162513 29 200 3.2 8.0 0.00 0.00 0.00 68 1016.4
20260831162015 29 283 3.2 11.3 0.00 0.00 0.00 67 1016.4
20260831161608 28 288 4.8 11.3 0.00 0.00 0.00 67 1016.4
20260831161531 28 238 4.8 11.3 0.00 0.00 0.00 67 1016.4
20260831161014 28 231 4.8 8.0 0.00 0.00 0.00 67 1016.3
20260831160515 28 290 3.2 9.7 0.00 0.00 0.00 69 1016.3
20260831160105 28 256 3.2 9.7 0.00 0.00 0.00 69 1016.3
20260831160034 28 296 1.6 9.7 0.00 0.00 0.00 71 1016.4
20260831155518 28 302 3.2 8.0 0.00 0.00 0.00 71 1016.4
20260831155018 27 310 4.8 6.4 0.00 0.00 0.00 69 1016.4
20260831154634 27 296 3.2 9.7 0.00 0.00 0.00 71 1016.4
20260831154537 27 229 3.2 9.7 0.00 0.00 0.00 69 1016.4
20260831154008 27 314 4.8 9.7 0.00 0.00 0.00 69 1016.4
20260831153509 27 274 3.2 9.7 0.00 0.00 0.00 72 1016.4
20260831153120 27 278 3.2 8.0 0.00 0.00 0.00 74 1016.2
20260831153018 26 262 3.2 8.0 0.00 0.00 0.00 74 1016.4
20260831152510 26 278 3.2 8.0 0.00 0.00 0.00 71 1016.4
20260831152011 26 323 1.6 8.0 0.00 0.00 0.00 72 1016.4
20260831151613 26 291 3.2 8.0 0.00 0.00 0.00 71 1016.3
20260831151528 26 296 3.2 8.0 0.00 0.00 0.00 71 1016.3
20260831151013 26 307 3.2 8.0 0.00 0.00 0.00 72 1016.3
20260831150512 26 307 3.2 9.7 0.00 0.00 0.00 73 1016.3
20260831150109 26 288 3.2 9.7 0.00 0.00 0.00 72 1016.2
20260831150032 26 297 3.2 9.7 0.00 0.00 0.00 72 1016.3
20260831145514 26 271 4.8 9.7 0.00 0.00 0.00 73 1016.2
20260831145015 26 295 3.2 6.4 0.00 0.00 0.00 73 1016.2
20260831144607 26 285 3.2 6.4 0.00 0.00 0.00 73 1016.2
20260831144535 26 285 3.2 6.4 0.00 0.00 0.00 72 1016.2
20260831144015 26 292 3.2 8.0 0.00 0.00 0.00 71 1016.2
20260831143517 26 296 3.2 8.0 0.00 0.00 0.00 72 1016.3
20260831143107 26 255 4.8 14.5 0.00 0.00 0.00 70 1016.2
20260831143016 26 316 4.8 14.5 0.00 0.00 0.00 72 1016.2
20260831142509 26 278 4.8 14.5 0.00 0.00 0.00 73 1016.0
20260831142012 25 255 4.8 9.7 0.00 0.00 0.00 73 1016.1
20260831141605 25 282 3.2 8.0 0.00 0.00 0.00 74 1016.1
20260831141524 25 331 3.2 8.0 0.00 0.00 0.00 74 1016.1
20260831141012 25 293 4.8 8.0 0.00 0.00 0.00 75 1016.1
20260831140513 25 276 4.8 8.0 0.00 0.00 0.00 75 1016.2
20260831140101 25 292 3.2 8.0 0.00 0.00 0.00 76 1016.2
20260831140032 25 292 3.2 8.0 0.00 0.00 0.00 76 1016.1
20260831135515 24 153 3.2 6.4 0.00 0.00 0.00 77 1016.1
20260831135014 23 281 3.2 8.0 0.00 0.00 0.00 77 1016.1
20260831134614 23 245 3.2 8.0 0.00 0.18 0.00 76 1016.1
20260831134531 23 259 3.2 8.0 0.00 0.03 0.00 76 1016.0
20260831134015 23 304 4.8 9.7 0.00 0.05 0.00 76 1016.2
20260831133518 23 271 1.6 9.7 0.00 0.15 0.00 77 1015.9
20260831133109 23 259 3.2 8.0 0.00 0.18 0.00 77 1016.0
20260831133036 23 282 3.2 8.0 0.00 0.18 0.00 76 1016.0
20260831132516 23 284 3.2 8.0 0.00 0.18 0.00 77 1016.0
20260831132020 23 113 1.6 6.4 0.00 0.18 0.00 78 1016.0
20260831131601 23 264 3.2 9.7 0.00 0.18 0.00 78 1016.2
20260831131517 23 288 3.2 9.7 0.00 0.18 0.00 78 1016.0
20260831131014 22 288 3.2 9.7 0.00 0.18 0.00 79 1016.1
20260831130510 22 247 3.2 6.4 0.00 0.18 0.00 80 1016.0
20260831130104 22 307 1.6 4.8 0.00 0.18 0.00 81 1016.1
20260831130024 22 261 1.6 4.8 0.00 0.18 0.00 81 1015.9
20260831125513 21 165 1.6 4.8 0.00 0.18 0.00 82 1015.9
20260831125017 21 217 1.6 6.4 0.00 0.18 0.00 83 1015.9
20260831124606 21 328 1.6 6.4 0.00 0.18 0.00 83 1016.0
20260831124532 21 232 1.6 6.4 0.00 0.18 0.00 83 1016.0
20260831124020 21 258 1.6 6.4 0.00 0.18 0.00 82 1015.9
20260831123514 21 293 1.6 4.8 0.00 0.18 0.00 82 1015.9
20260831123106 21 295 1.6 4.8 0.00 0.18 0.00 82 1015.9
20260831123030 21 234 1.6 4.8 0.00 0.18 0.00 83 1015.8
20260831122518 21 235 1.6 4.8 0.00 0.18 0.00 83 1015.8
20260831122019 21 237 1.6 4.8 0.00 0.18 0.00 84 1015.8
20260831121626 21 287 1.6 4.8 0.00 0.18 0.00 84 1015.8
20260831121532 21 300 1.6 4.8 0.00 0.18 0.00 84 1015.7
20260831121016 21 287 1.6 4.8 0.00 0.18 0.00 84 1015.6
20260831120519 21 341 1.6 6.4 0.00 0.18 0.00 84 1015.6
20260831120115 20 257 1.6 6.4 0.00 0.18 0.00 84 1015.6
20260831120031 20 303 1.6 6.4 0.00 0.18 0.00 84 1015.6
20260831115509 20 286 1.6 6.4 0.00 0.18 0.00 84 1015.5
20260831115011 20 306 1.6 4.8 0.00 0.18 0.00 84 1015.5
20260831114624 20 290 1.6 6.4 0.00 0.18 0.00 83 1015.5
20260831114531 20 292 1.6 6.4 0.00 0.18 0.00 83 1015.4
20260831114003 21 287 1.6 6.4 0.00 0.18 0.00 83 1015.3
20260831113504 21 274 3.2 4.8 0.00 0.18 0.00 83 1015.3
20260831113125 21 270 1.6 6.4 0.00 0.18 0.00 83 1015.4
20260831113007 21 276 1.6 6.4 0.00 0.18 0.00 83 1015.3
20260831112506 21 285 1.6 8.0 0.00 0.18 0.00 83 1015.3
20260831112003 21 277 3.2 8.0 0.00 0.18 0.00 83 1015.3
20260831111604 21 279 3.2 6.4 0.00 0.18 0.00 83 1015.4
20260831111523 21 319 3.2 6.4 0.00 0.18 0.00 83 1015.3
20260831111010 21 221 1.6 6.4 0.00 0.18 0.00 83 1015.3
20260831110508 20 288 3.2 6.4 0.00 0.18 0.00 83 1015.2
20260831110106 20 290 1.6 4.8 0.00 0.18 0.00 83 1015.3
20260831110018 20 297 1.6 4.8 0.00 0.18 0.00 83 1015.3
20260831105507 20 217 1.6 6.4 0.00 0.18 0.00 84 1015.3
20260831105011 20 257 3.2 6.4 0.00 0.18 0.00 83 1015.3
20260831104615 20 285 3.2 6.4 0.00 0.18 0.00 83 1015.4
20260831104533 20 273 3.2 6.4 0.00 0.18 0.00 83 1015.3
20260831104010 21 278 1.6 6.4 0.00 0.18 0.00 83 1015.3
20260831103514 21 286 1.6 6.4 0.00 0.18 0.00 83 1015.3
20260831103111 21 317 3.2 6.4 0.00 0.18 0.00 83 1015.3
20260831103004 21 250 3.2 6.4 0.00 0.18 0.00 82 1015.3
20260831102504 21 248 1.6 6.4 0.00 0.18 0.00 82 1015.3
20260831102004 21 281 1.6 4.8 0.00 0.18 0.00 82 1015.3
20260831101605 21 271 1.6 6.4 0.00 0.18 0.00 82 1015.3
20260831101511 21 283 1.6 6.4 0.00 0.18 0.00 82 1015.2
20260831101005 21 286 3.2 6.4 0.00 0.18 0.00 82 1015.1
20260831100504 21 268 3.2 6.4 0.00 0.18 0.00 82 1015.0
20260831100104 21 245 1.6 6.4 0.00 0.18 0.00 82 1015.1
20260831100019 21 278 1.6 6.4 0.00 0.18 0.00 82 1015.1
20260831095507 21 282 1.6 4.8 0.00 0.18 0.00 82 1015.0
20260831095010 21 268 1.6 4.8 0.00 0.18 0.00 82 1015.0
20260831094609 21 48 1.6 4.8 0.00 0.18 0.00 82 1015.1
20260831094530 21 285 1.6 4.8 0.00 0.18 0.00 82 1015.1
20260831094012 21 290 1.6 4.8 0.00 0.18 0.00 82 1015.1
20260831093511 21 242 1.6 4.8 0.00 0.18 0.00 82 1015.1
20260831093155 21 288 1.6 6.4 0.00 0.18 0.00 82 1015.1
20260831093026 21 307 1.6 6.4 0.00 0.18 0.00 82 1015.1
20260831092514 21 261 1.6 6.4 0.00 0.18 0.00 82 1015.2
20260831092014 21 274 3.2 4.8 0.00 0.18 0.00 82 1015.2
20260831091606 21 293 1.6 4.8 0.00 0.18 0.00 82 1015.2
20260831091508 21 281 1.6 4.8 0.00 0.18 0.00 82 1015.2
20260831091003 21 282 1.6 4.8 0.00 0.18 0.00 81 1015.3
20260831090506 21 313 1.6 4.8 0.00 0.18 0.00 81 1015.2
20260831090107 21 46 1.6 4.8 0.00 0.18 0.00 81 1015.3
20260831090014 21 259 1.6 4.8 0.00 0.18 0.00 81 1015.2
20260831085504 21 264 1.6 4.8 0.00 0.18 0.00 81 1015.2
20260831085008 21 288 1.6 4.8 0.00 0.18 0.00 82 1015.2
20260831084653 21 232 1.6 4.8 0.00 0.18 0.00 82 1015.3
20260831084518 21 288 1.6 4.8 0.00 0.18 0.00 82 1015.2
20260831084007 21 205 1.6 4.8 0.00 0.18 0.00 82 1015.2
20260831083511 21 238 1.6 4.8 0.00 0.18 0.00 82 1015.1
20260831083110 21 214 1.6 3.2 0.00 0.18 0.00 81 1015.1
20260831083027 21 249 1.6 3.2 0.00 0.18 0.00 81 1015.1
20260831082510 21 314 0.0 3.2 0.00 0.18 0.00 81 1015.0
20260831082016 21 224 1.6 4.8 0.00 0.18 0.00 81 1015.1
20260831081605 21 116 0.0 4.8 0.00 0.18 0.00 80 1015.1
20260831081530 21 250 0.0 4.8 0.00 0.18 0.00 80 1015.0
20260831081016 21 248 0.0 3.2 0.00 0.18 0.00 80 1015.0
20260831080519 21 306 0.0 3.2 0.00 0.18 0.00 81 1015.0
20260831080125 21 227 0.0 3.2 0.00 0.18 0.00 81 1015.0
20260831080022 21 245 0.0 3.2 0.00 0.18 0.00 81 1015.0
20260831075503 21 50 0.0 3.2 0.00 0.18 0.00 81 1015.0
20260831075004 21 293 0.0 3.2 0.00 0.18 0.00 81 1015.0
20260831074607 21 257 1.6 4.8 0.00 0.18 0.00 81 1015.0
20260831074515 21 355 1.6 4.8 0.00 0.18 0.00 81 1015.0
20260831074006 21 274 1.6 4.8 0.00 0.18 0.00 81 1015.1
20260831073507 21 37 0.0 3.2 0.00 0.18 0.00 81 1015.1
20260831073104 21 266 0.0 3.2 0.00 0.18 0.00 82 1015.2
20260831073030 21 266 0.0 3.2 0.00 0.18 0.00 82 1015.2
20260831072510 21 301 0.0 1.6 0.00 0.18 0.00 81 1015.3
20260831072016 21 283 0.0 1.6 0.00 0.18 0.00 81 1015.3
20260831071612 21 168 0.0 3.2 0.00 0.18 0.00 81 1015.4
20260831071527 21 359 0.0 3.2 0.00 0.18 0.00 81 1015.3
20260831071015 21 239 0.0 3.2 0.00 0.18 0.00 80 1015.4
20260831070511 21 152 0.0 3.2 0.00 0.18 0.00 80 1015.4
20260831070107 21 270 0.0 3.2 0.00 0.18 0.00 80 1015.4
20260831070032 21 300 0.0 3.2 0.00 0.18 0.00 80 1015.4
20260831065517 21 243 1.6 3.2 0.00 0.18 0.00 80 1015.4
20260831065015 21 257 1.6 3.2 0.00 0.18 0.00 79 1015.4
20260831064610 21 176 0.0 1.6 0.00 0.18 0.00 79 1015.5
20260831064510 21 282 0.0 1.6 0.00 0.18 0.00 79 1015.5
20260831064007 22 285 0.0 1.6 0.00 0.18 0.00 79 1015.5
20260831063504 22 278 0.0 1.6 0.00 0.18 0.00 79 1015.5
20260831063113 22 253 0.0 4.8 0.00 0.18 0.00 79 1015.6
20260831063021 22 270 0.0 4.8 0.00 0.18 0.00 79 1015.6
20260831062510 22 272 0.0 4.8 0.00 0.18 0.00 79 1015.6
20260831062013 22 160 0.0 4.8 0.00 0.18 0.00 78 1015.5
20260831061605 22 0 0.0 4.8 0.00 0.18 0.00 78 1015.7
20260831061525 22 144 0.0 4.8 0.00 0.18 0.00 78 1015.5
20260831061013 22 331 0.0 4.8 0.00 0.18 0.00 78 1015.5
20260831060512 22 167 0.0 4.8 0.00 0.18 0.00 77 1015.5
20260831060127 22 343 0.0 3.2 0.00 0.18 0.00 77 1015.6
20260831060033 22 122 0.0 3.2 0.00 0.18 0.00 77 1015.5
20260831055516 22 176 0.0 3.2 0.00 0.18 0.00 77 1015.6
20260831055016 22 226 0.0 1.6 0.00 0.18 0.00 77 1015.6
20260831054603 22 250 0.0 1.6 0.00 0.18 0.00 77 1015.7
20260831054531 22 273 0.0 1.6 0.00 0.18 0.00 77 1015.6
20260831054017 22 178 0.0 1.6 0.00 0.18 0.00 77 1015.7
20260831053516 22 238 0.0 3.2 0.00 0.18 0.00 78 1015.7
20260831053111 22 45 0.0 3.2 0.00 0.18 0.00 78 1015.7
20260831053015 22 45 0.0 3.2 0.00 0.18 0.00 78 1015.7
20260831052504 22 224 0.0 3.2 0.00 0.18 0.00 78 1015.8
20260831052008 22 225 0.0 3.2 0.00 0.18 0.00 78 1015.9
20260831051602 22 0 0.0 1.6 0.00 0.18 0.00 78 1015.9
20260831051519 22 139 0.0 1.6 0.00 0.18 0.00 78 1015.9
20260831051007 22 250 0.0 1.6 0.00 0.18 0.00 78 1015.9
20260831050511 22 131 0.0 3.2 0.00 0.18 0.00 77 1015.9
20260831050118 22 243 0.0 3.2 0.00 0.18 0.00 77 1015.8
20260831050027 22 251 0.0 3.2 0.00 0.18 0.00 77 1015.8
20260831045513 22 58 0.0 1.6 0.00 0.18 0.18 77 1015.7
20260831045012 22 136 0.0 1.6 0.00 0.18 0.18 77 1015.7
20260831044602 22 227 0.0 3.2 0.00 0.18 0.18 77 1015.8
20260831044531 22 224 0.0 1.6 0.00 0.18 0.18 77 1015.7
20260831044014 22 154 0.0 3.2 0.00 0.18 0.18 77 1015.7
20260831043519 22 273 0.0 3.2 0.00 0.18 0.18 77 1015.7
20260831043103 22 77 0.0 3.2 0.00 0.18 0.18 78 1015.7
20260831043034 22 219 0.0 3.2 0.00 0.18 0.18 78 1015.8
20260831042518 22 158 0.0 3.2 0.00 0.18 0.18 77 1015.8
20260831042004 22 339 0.0 1.6 0.00 0.18 0.18 78 1015.9
20260831041606 22 0 0.0 1.6 0.00 0.18 0.18 78 1016.0
20260831041516 22 213 0.0 1.6 0.00 0.18 0.18 78 1015.9
20260831041008 22 153 0.0 1.6 0.00 0.18 0.18 78 1015.9
20260831040508 22 219 0.0 1.6 0.00 0.18 0.18 78 1015.9
20260831040106 22 153 0.0 1.6 0.00 0.18 0.18 78 1015.9
20260831040026 22 153 0.0 1.6 0.00 0.18 0.18 78 1015.8
20260831035510 22 162 0.0 1.6 0.00 0.18 0.18 78 1015.8
20260831035009 22 204 0.0 1.6 0.00 0.18 0.18 78 1015.8
20260831034612 22 0 0.0 3.2 0.00 0.18 0.18 79 1015.8
20260831034526 22 278 0.0 1.6 0.00 0.18 0.18 78 1015.8
20260831034015 22 269 0.0 3.2 0.00 0.18 0.18 79 1015.8
20260831033513 22 212 0.0 3.2 0.00 0.18 0.18 79 1015.8
20260831033107 22 174 0.0 3.2 0.00 0.18 0.18 81 1015.8
20260831033031 22 174 0.0 3.2 0.00 0.18 0.18 81 1015.8
20260831032516 22 212 0.0 3.2 0.00 0.18 0.18 82 1015.8
20260831032014 22 171 0.0 3.2 0.00 0.18 0.18 83 1015.9
20260831031605 22 153 0.0 3.2 0.00 0.18 0.18 84 1015.9
20260831031540 21 153 0.0 3.2 0.00 0.18 0.18 84 1016.0
20260831031013 21 148 0.0 1.6 0.00 0.18 0.18 86 1016.0
20260831030507 21 178 0.0 1.6 0.00 0.18 0.18 87 1016.0
20260831030106 21 0 0.0 1.6 0.00 0.18 0.18 88 1016.0
20260831030017 21 178 0.0 1.6 0.00 0.18 0.18 88 1015.9
20260831025510 21 102 0.0 1.6 0.00 0.18 0.18 89 1015.7
20260831025011 21 91 0.0 3.2 0.00 0.18 0.18 90 1015.9
20260831024603 21 96 0.0 3.2 0.00 0.18 0.18 90 1016.0
20260831024521 21 96 0.0 3.2 0.00 0.18 0.18 90 1016.0
20260831024012 21 86 0.0 1.6 0.00 0.18 0.18 90 1016.2
20260831023512 21 83 0.0 3.2 0.00 0.18 0.18 90 1016.3
20260831023110 21 83 0.0 3.2 0.00 0.18 0.18 90 1016.3
20260831023029 21 83 0.0 3.2 0.00 0.18 0.18 90 1016.3
20260831022513 21 84 0.0 1.6 0.00 0.18 0.18 90 1016.2
20260831022003 21 84 0.0 0.0 0.00 0.18 0.18 90 1016.2
20260831021607 21 0 0.0 0.0 0.00 0.18 0.18 90 1016.2
20260831021508 21 84 0.0 0.0 0.00 0.18 0.18 90 1016.2
20260831021004 22 84 0.0 0.0 0.00 0.18 0.18 90 1016.1
20260831020505 22 84 0.0 0.0 0.00 0.18 0.18 89 1016.1
20260831020109 22 0 0.0 0.0 0.00 0.18 0.18 89 1016.0
20260831020014 22 84 0.0 0.0 0.00 0.18 0.18 88 1016.0
20260831015508 22 84 0.0 0.0 0.00 0.18 0.18 87 1015.9
20260831015008 22 84 0.0 0.0 0.00 0.18 0.18 87 1016.0
20260831014626 22 0 0.0 0.0 0.00 0.18 0.18 86 1015.8
20260831014518 22 84 0.0 0.0 0.00 0.18 0.18 86 1015.8
20260831014014 23 84 0.0 0.0 0.00 0.18 0.18 86 1015.8
20260831013511 23 84 0.0 0.0 0.00 0.18 0.18 85 1016.0
20260831013107 23 0 0.0 0.0 0.00 0.18 0.18 86 1015.9
20260831013025 23 84 0.0 0.0 0.00 0.18 0.18 86 1016.0
20260831012512 23 84 0.0 0.0 0.00 0.18 0.18 86 1015.9
20260831012014 23 84 0.0 0.0 0.00 0.18 0.18 85 1015.9
20260831011605 23 0 0.0 1.6 0.00 0.18 0.18 85 1015.7
20260831011530 23 84 0.0 1.6 0.00 0.18 0.18 85 1015.8
20260831011015 23 84 0.0 1.6 0.00 0.18 0.18 85 1015.8
20260831010504 23 84 1.6 1.6 0.00 0.18 0.18 86 1015.6
20260831010109 23 96 0.0 1.6 0.00 0.18 0.18 86 1015.4
20260831010009 23 90 0.0 1.6 0.00 0.18 0.18 86 1015.5
20260831004605 24 0 0.0 1.6 0.00 0.18 0.18 86 1015.4
20260831004515 24 96 0.0 1.6 0.00 0.18 0.18 86 1015.5
20260831004010 24 96 0.0 1.6 0.00 0.18 0.18 85 1015.5
20260831003509 25 101 0.0 1.6 0.00 0.18 0.18 84 1015.6
20260831003107 25 102 0.0 1.6 0.00 0.18 0.18 84 1015.6
20260831003023 25 101 0.0 1.6 0.00 0.18 0.18 83 1015.7
20260831002510 25 101 0.0 0.0 0.00 0.18 0.18 82 1015.8
20260831002012 25 103 0.0 0.0 0.00 0.18 0.18 80 1015.8
20260831001620 25 0 0.0 0.0 0.00 0.18 0.18 80 1015.7
20260831001527 25 205 0.0 0.0 0.00 0.18 0.18 79 1015.8
20260831001015 26 205 0.0 0.0 0.00 0.18 0.18 78 1015.8
20260831000516 26 205 0.0 1.6 0.00 0.18 0.18 77 1015.8
20260831000110 26 0 0.0 1.6 0.00 0.18 0.18 75 1015.7
20260831000035 26 205 0.0 1.6 0.00 0.18 0.18 75 1015.8
20260830235513 26 210 0.0 1.6 0.00 0.18 0.18 75 1015.7
20260830235005 26 210 0.0 0.0 0.00 0.18 0.18 74 1015.8
20260830234613 27 0 0.0 0.0 0.00 0.18 0.18 74 1015.7
20260830234522 27 228 0.0 0.0 0.00 0.18 0.18 74 1015.8
20260830234005 27 228 0.0 0.0 0.00 0.18 0.18 73 1015.8
20260830233508 27 228 0.0 0.0 0.00 0.18 0.18 72 1015.8
20260830233133 28 0 0.0 1.6 0.00 0.18 0.18 71 1015.8
20260830233017 28 228 0.0 1.6 0.00 0.18 0.18 70 1015.9
20260830232511 28 229 0.0 1.6 0.00 0.18 0.18 68 1015.8
20260830232015 29 227 0.0 0.0 0.00 0.18 0.18 67 1015.8
20260830231605 29 0 0.0 1.6 0.00 0.18 0.18 66 1015.8
20260830231524 29 304 0.0 1.6 0.00 0.18 0.18 66 1015.8
20260830231015 30 304 0.0 1.6 0.00 0.18 0.18 65 1015.8
20260830230511 30 262 0.0 1.6 0.00 0.18 0.18 65 1015.8
20260830230120 30 0 0.0 1.6 0.00 0.18 0.18 65 1015.7
20260830230031 30 205 0.0 1.6 0.00 0.18 0.18 66 1015.8
20260830225513 30 262 0.0 1.6 0.00 0.18 0.18 65 1015.8
20260830225016 30 151 0.0 3.2 0.00 0.18 0.18 66 1015.7
20260830224601 29 0 0.0 3.2 0.00 0.18 0.18 69 1015.7
20260830224531 29 222 0.0 3.2 0.00 0.18 0.18 68 1015.7
20260830224015 29 195 0.0 1.6 0.00 0.18 0.18 68 1015.6
20260830223504 28 243 0.0 1.6 0.00 0.18 0.18 70 1015.7
20260830223104 28 0 0.0 1.6 0.00 0.18 0.18 69 1015.8
20260830223016 28 239 0.0 1.6 0.00 0.18 0.18 70 1015.8
20260830222507 28 254 0.0 1.6 0.00 0.18 0.18 67 1015.8
20260830222012 28 198 0.0 1.6 0.00 0.18 0.18 67 1015.6
20260830221610 28 196 0.0 3.2 0.00 0.18 0.18 68 1015.5
20260830221529 28 202 0.0 3.2 0.00 0.18 0.18 69 1015.5
20260830221010 28 256 0.0 6.4 0.00 0.18 0.18 68 1015.3
20260830220510 28 243 1.6 6.4 0.00 0.18 0.18 68 1015.2
20260830220109 28 242 1.6 6.4 0.00 0.18 0.18 69 1015.2
20260830220030 28 207 1.6 6.4 0.00 0.18 0.18 68 1015.1
20260830215512 28 6 1.6 8.0 0.00 0.18 0.18 69 1014.9
20260830215014 28 174 3.2 8.0 0.00 0.18 0.18 68 1015.0
20260830214606 28 56 3.2 8.0 0.00 0.18 0.18 67 1015.0
20260830214530 28 141 3.2 8.0 0.00 0.18 0.18 67 1015.0
20260830214013 28 317 1.6 8.0 0.00 0.18 0.18 68 1015.0
20260830213516 29 290 3.2 8.0 0.00 0.18 0.18 67 1014.9
20260830213103 29 130 3.2 8.0 0.00 0.18 0.18 67 1015.0
20260830213030 29 226 3.2 8.0 0.00 0.18 0.18 67 1014.9
20260830212519 29 283 3.2 8.0 0.00 0.18 0.18 70 1014.9
20260830212008 28 272 3.2 8.0 0.00 0.18 0.18 69 1014.9
20260830211603 28 285 1.6 6.4 0.00 0.18 0.18 68 1015.0
20260830211515 28 52 1.6 6.4 0.00 0.18 0.18 68 1015.0
20260830211008 28 254 3.2 6.4 0.00 0.18 0.18 69 1015.0
20260830210509 28 120 1.6 6.4 0.00 0.18 0.18 71 1015.1
20260830210106 28 165 1.6 6.4 0.00 0.18 0.18 71 1015.3
20260830210027 28 62 1.6 6.4 0.00 0.18 0.18 72 1015.3
20260830205512 28 292 1.6 4.8 0.00 0.18 0.18 72 1015.5
20260830205011 28 139 1.6 4.8 0.00 0.18 0.18 72 1015.6
20260830204606 28 221 1.6 6.4 0.00 0.18 0.18 71 1015.8
20260830204536 28 214 1.6 4.8 0.00 0.18 0.18 71 1015.7
20260830204014 28 145 1.6 6.4 0.00 0.18 0.18 72 1015.7
20260830203516 28 225 3.2 6.4 0.00 0.18 0.18 69 1015.8
20260830203104 29 276 1.6 9.7 0.00 0.18 0.18 68 1015.7
20260830203038 29 313 1.6 6.4 0.00 0.18 0.18 68 1015.8
20260830202514 29 258 3.2 9.7 0.00 0.18 0.18 67 1015.7
20260830202016 29 71 3.2 9.7 0.00 0.18 0.18 65 1015.8
20260830201606 30 40 3.2 8.0 0.00 0.18 0.18 66 1015.7
20260830201532 30 41 3.2 8.0 0.00 0.18 0.18 65 1015.8
20260830201015 30 314 3.2 9.7 0.00 0.18 0.18 65 1015.9
20260830200508 30 273 1.6 9.7 0.00 0.18 0.18 67 1015.9
20260830200029 30 310 3.2 8.0 0.00 0.18 0.18 68 1016.0
20260830195509 30 271 3.2 8.0 0.00 0.18 0.18 67 1015.9
20260830195008 30 216 3.2 8.0 0.00 0.18 0.18 70 1015.9
20260830194616 29 337 3.2 6.4 0.00 0.18 0.18 71 1016.0
20260830194525 29 286 3.2 6.4 0.00 0.18 0.18 70 1015.9
20260830194015 29 154 3.2 6.4 0.00 0.18 0.18 71 1016.0
20260830193512 29 188 1.6 6.4 0.00 0.18 0.18 71 1016.0
20260830193102 28 234 1.6 8.0 0.00 0.18 0.18 72 1016.1
20260830193030 28 288 1.6 8.0 0.00 0.18 0.18 72 1016.0
20260830192515 28 123 1.6 8.0 0.00 0.18 0.18 74 1016.0
20260830192016 28 90 1.6 4.8 0.00 0.18 0.18 74 1016.0
20260830191605 28 269 1.6 8.0 0.00 0.18 0.18 75 1016.1
20260830191534 28 12 0.0 8.0 0.00 0.18 0.18 75 1016.1
20260830191017 28 245 1.6 8.0 0.00 0.18 0.18 74 1016.2
20260830190519 28 218 1.6 8.0 0.00 0.18 0.18 74 1016.2
20260830190104 27 262 1.6 8.0 0.00 0.18 0.18 73 1016.2
20260830190032 27 170 1.6 8.0 0.00 0.18 0.18 73 1016.2
20260830185508 27 146 1.6 6.4 0.00 0.18 0.18 74 1016.3
20260830185007 27 93 3.2 6.4 0.00 0.18 0.18 74 1016.3
20260830184605 27 128 1.6 6.4 0.00 0.18 0.18 75 1016.3
20260830184524 27 143 3.2 6.4 0.00 0.18 0.18 75 1016.3
20260830184009 27 305 1.6 6.4 0.00 0.18 0.18 74 1016.4
20260830183511 27 225 1.6 6.4 0.00 0.18 0.18 74 1016.4
20260830183109 27 274 1.6 4.8 0.00 0.18 0.18 74 1016.6
20260830183028 27 172 1.6 4.8 0.00 0.18 0.18 74 1016.5
20260830182513 27 318 1.6 8.0 0.00 0.18 0.18 73 1016.6
20260830182015 28 108 3.2 8.0 0.00 0.18 0.18 73 1016.7
20260830181601 28 170 1.6 6.4 0.00 0.18 0.18 74 1016.8
20260830181530 28 226 1.6 6.4 0.00 0.18 0.18 74 1016.7
20260830181014 27 210 3.2 9.7 0.00 0.18 0.18 73 1016.7
20260830180518 27 266 3.2 9.7 0.00 0.18 0.18 72 1016.8
20260830180105 27 285 1.6 8.0 0.00 0.18 0.18 74 1017.0
20260830180048 27 314 1.6 8.0 0.00 0.18 0.18 74 1016.8
20260830175518 27 188 3.2 8.0 0.00 0.18 0.18 73 1016.9
20260830175020 27 285 3.2 9.7 0.00 0.18 0.18 72 1016.9
20260830174616 28 319 4.8 9.7 0.00 0.18 0.18 71 1017.0
20260830174534 28 255 4.8 9.7 0.00 0.18 0.18 70 1017.0
20260830174008 28 204 4.8 9.7 0.00 0.18 0.18 72 1017.1
20260830173510 28 290 3.2 8.0 0.00 0.18 0.18 75 1017.2
20260830173105 28 259 3.2 8.0 0.00 0.18 0.18 75 1017.3
20260830173016 28 324 3.2 8.0 0.00 0.18 0.18 75 1017.4
20260830172506 27 297 3.2 8.0 0.00 0.18 0.18 77 1017.4
20260830172006 27 266 3.2 6.4 0.00 0.18 0.18 77 1017.4
20260830171607 27 210 3.2 8.0 0.00 0.18 0.18 77 1017.4
20260830171506 26 237 3.2 8.0 0.00 0.18 0.18 77 1017.5
20260830171004 26 250 3.2 9.7 0.00 0.18 0.18 80 1017.6